Location: Belokuz’minovka
(48.6525°N, 37.6784°E)
Time: 02:24:18
(UTC+00:00)

Daily predictions for brighter satellites

Satellite Brightness Start Highest point End
(mag) Time Altitude Azimuth Time Altitude Azimuth Time Altitude Azimuth
Cosmos 1703 3.4 00:00:36 13° S 00:04:01 72° E 00:07:57 10° NNE
Gblst 52 Del rocket 4.4 00:07:11 10° WNW 00:12:58 73° N 00:18:27 10° E
Cosmos 292 Rocket 3.8 00:09:41 14° SSW 00:13:48 87° ESE 00:18:38 10° NNE
NPP 4.2 00:09:31 10° N 00:14:37 45° WNW 00:19:05 13° SW
Cosmos 2084 Rocket 4.0 00:12:47 13° WSW 00:16:00 41° NW 00:19:39 10° NNE
USA 306 3.7 00:12:40 10° W 00:16:44 49° NNW 00:20:48 10° ENE
Cosmos 2369 Rocket 2.1 00:11:30 10° NNW 00:17:08 80° WSW 00:22:42 10° SSE
USA 307 3.6 00:16:04 10° W 00:20:09 50° NNW 00:24:15 10° ENE
USA 215 4.5 00:14:33 10° ENE 00:20:39 43° N 00:26:45 10° WNW
SL-16 R/B 2.6 00:16:08 14° SW 00:20:59 55° WNW 00:26:35 10° NNE
IRS-1D 3.7 00:16:14 10° NNE 00:21:38 79° ESE 00:26:54 10° SSW
Cosmos 614 Rocket 4.3 00:17:36 10° NW 00:22:32 45° WSW 00:27:28 10° S
Cosmos 2251 Rocket 3.5 00:18:45 10° NNW 00:24:00 71° WSW 00:29:14 10° SSE
Cosmos 2228 3.1 00:21:08 10° NNW 00:25:27 61° W 00:29:44 10° S
ERBS 3.8 00:23:35 10° W 00:26:17 28° NNW 00:29:01 10° NE
Cosmos 1656 Rocket 3.6 00:21:30 10° NNW 00:26:57 83° WSW 00:32:22 10° SSE
COSMOS 2455 2.9 00:21:40 12° SSW 00:27:14 88° NW 00:33:18 10° NE
EO 1 Del DPAF 3.6 00:24:52 10° N 00:28:14 44° WNW 00:31:12 12° SW
Meteor 1-28 Rocket 4.3 00:28:44 12° SSW 00:31:35 27° W 00:34:49 10° NW
Cosmos 2058 Rocket 4.0 00:28:33 10° N 00:32:50 50° ENE 00:37:05 10° SSE
Cosmos 1536 Rocket 4.4 00:30:54 12° SW 00:34:39 37° WNW 00:38:45 10° N
Nadezhda 1 Rocket 4.4 00:30:28 10° SSW 00:36:36 51° WNW 00:42:43 10° N
COSMOS 2441 4.4 00:33:17 10° N 00:38:10 73° WNW 00:42:58 10° SSW
MSX 4.0 00:33:21 10° N 00:39:05 66° WNW 00:44:47 10° SSW
Cosmos 1603 4.1 00:38:52 10° SSW 00:44:25 64° ESE 00:50:03 10° NNE
Cosmos 1408 3.8 00:43:19 10° SSE 00:46:46 41° E 00:50:12 10° NNE
Cosmos 1455 4.3 00:48:49 10° WNW 00:50:17 12° W 00:51:45 10° WSW
USA 308 4.0 00:46:55 10° W 00:50:55 42° N 00:54:57 10° ENE
Cosmos 1271 Rocket 4.2 00:51:16 10° NW 00:54:06 20° W 00:56:56 10° SW
Cosmos 1606 Rocket 4.0 00:52:03 10° NNW 00:56:16 44° W 01:00:26 10° SSW
CZ-2D R/B 3.9 00:53:25 10° NNW 00:57:10 20° NW 01:00:53 10° W
ALOS 2.9 00:53:24 10° NNE 00:58:02 59° E 01:02:38 10° S
CZ-2C R/B 3.1 00:54:12 10° NNE 00:59:19 60° ESE 01:04:15 10° S
Cosmos 2366 rocket 4.0 00:54:47 10° NNW 01:00:56 76° W 01:07:06 10° S
Cosmos 2341 Rocket 4.3 00:54:58 10° NNW 01:01:10 55° W 01:07:21 10° SSW
